Location: Asheville, NC
(35.6000°N, 82.5500°W)
Time: 23:08:40

Vanguard 2 Rocket - Pass Details

Date: 10 March 2018
Orbit: 554 x 3327 km, 32.9° (Epoch: 20 March)

Event Time Altitude Azimuth Distance (km) Brightness Sun altitude
Rises 20:35:52 0° 268° (W) 3,137 10.9 -25.5°
Reaches altitude 10° 20:37:51 10° 266° (W) 2,394 10.0 -25.9°
Maximum altitude 20:43:24 71° 183° (S) 1,174 7.2 -27.0°
Enters shadow 20:44:57 57° 125° (SE) 1,412 7.4 -27.3°
